Regional Weather Roundup
Issued by NWS Wakefield, VA

Home | Current Version | Previous Version | Graphics & Text | Print | Product List | Glossary On
Versions: 1 2 3 4 5 6 7 8 9 10 11 12 13 14 15 16 17 18 19 20 21 22 23 24 25 26 27 28
000
ASUS41 KAKQ 272216
RWRAKQ

REGIONAL WEATHER ROUNDUP
NATIONAL WEATHER SERVICE WAKEFIELD VA
600 PM EDT SAT MAY 27 2017

Note: "fair" indicates few or no clouds below 12,000 feet with no
significant weather and/or obstructions to visibility. * = Denotes
station may not report precipitation (e.g., rain,snow,etc.),
thunder or fog.

VAZ042-051-052>054-056-272300-
NORTHERN VIRGINIA

CITY           SKY/WX    TMP DP  RH WIND       PRES   REMARKS
WASH NATIONAL  CLOUDY    70  65  84 E5        29.88F
DULLES         CLOUDY    69  61  75 NE8       29.88F
FORT BELVOIR   PTSUNNY   71  62  71 NE3       29.87F
QUANTICO       PTSUNNY   73  65  75 NE13      29.87F
FREDERICKSBRG* CLOUDY    73  65  75 N6        29.85R
STAFFORD*      LGT RAIN  72  64  75 NE7       29.90S
WARRENTON      MOSUNNY   74  62  65 NE9       29.86S
CULPEPER*      CLOUDY    74  65  73 NE3       29.87F
MANASSAS*      PTSUNNY   72  64  76 NE7       29.87F
LEESBURG*      PTSUNNY   70  64  83 NE5       29.89F
WINCHESTER     PTSUNNY   66  59  77 NE3       29.89S
FRONT ROYAL*   CLOUDY    70  63  78 E3        29.88S
LURAY*         MOCLDY    72  64  78 N8        29.88R
$$

VAZ048-049-060>072-079>083-272300-
CENTRAL AND SOUTH CENTRAL VIRGINIA

CITY           SKY/WX    TMP DP  RH WIND       PRES   REMARKS
RICHMOND       CLOUDY    82  68  62 S7        29.81F THUNDER
CHESTERFIELD*  NOT AVBL
PETERSBURG*    CLOUDY    79  67  65 CALM      29.82F
HANOVER        CLOUDY    77  72  84 MISG      29.83S
TAPPAHANNOCK*  CLOUDY    79  62  55 E6        29.84F
QUINTON*       MOCLDY   N/A N/A N/A CALM      29.81F
CHARLOTTSVILLE PTSUNNY   77  67  71 NE17G24   29.84S THUNDER
GORDONSVILLE*  CLOUDY    73  67  82 NE9       29.84S
ORANGE*        LGT RAIN  70  68  94 CALM      29.86R
LOUISA*          N/A     82  72  69 N12       29.83R
BUMPASS*       FAIR      78  69  73 CALM      29.82F
FARMVILLE*     CLOUDY    82  62  51 CALM      29.81F
CREWE*         CLOUDY    74  70  87 W10       29.87R
FORT PICKETT*  CLOUDY    79  67  65 S8        29.83S VSB 1
CHASE CITY*    MOCLDY    79  71  75 CALM      29.83F
CLARKSVILLE*   FAIR      82  68  61 SW5       29.84S
SOUTH HILL*    CLOUDY    85  70  60 SW8       29.88F
LAWRENCEVILLE* FAIR      82  67  61 S3        29.83F
EMPORIA*       MOSUNNY   82  66  57 S3        29.84F
$$

VAZ088>098-272300-
SOUTHEAST VIRGINIA

CITY           SKY/WX    TMP DP  RH WIND       PRES   REMARKS
NORFOLK        SUNNY     83  67  58 E6        29.82F
VIRGINIA BEACH MOSUNNY   78  66  66 E7        29.82F
NORFOLK NAVAL  MOSUNNY   83  63  50 E5        29.84F
WEST POINT*    MOSUNNY   79  65  62 E8        29.83F
SALUDA*        MOCLDY    74  65  74 E5        29.84S
NEWPORT NEWS   PTSUNNY   83  63  50 SW6       29.83F
LANGLEY AFB    MOSUNNY   82  65  57 SE5       29.83F
FORT EUSTIS    PTSUNNY   85  66  53 CALM      29.81S
WILLIAMSBURG*  MOSUNNY   81  66  61 CALM      29.83F
HR EXEC AP*    FAIR      86  64  48 SW9       29.80F
FRANKLIN*      MOSUNNY   85  64  50 SW5       29.83F
US460-WAKEFLD  SUNNY     85  66  53 CALM      29.82F
$$

VAZ020-022-025-037-045-272300-
WEST CENTRAL AND SOUTHWEST VIRGINIA

CITY           SKY/WX    TMP DP  RH WIND       PRES   REMARKS
STAUNTON*      CLOUDY    78  65  63 NE8       29.88R
WAYNESBORO*    MOCLDY    74  65  73 SW7       29.88S
HOT SPRINGS VA MOSUNNY   72  54  53 W12G17    30.00S
LYNCHBURG      MOSUNNY   84  64  50 VRB7      29.86S
DANVILLE       MOSUNNY   85  68  56 SW12      29.85F
SOUTH BOSTON*  FAIR      83  65  53 S8        29.84F
MARTINSVILLE   MOSUNNY   83  65  55 W5        29.90S
ROANOKE        CLOUDY    82  63  52 W9        29.89S
BLACKSBURG     MOSUNNY   78  63  60 W3        29.97S
DUBLIN*        MOSUNNY   80  58  47 W6        29.95F
MARION*        CLOUDY    74  64  70 W8        30.01S
HILLSVILLE*    PTSUNNY   76  57  51 CALM      29.98S
RICHLANDS*     MOCLDY    72  66  82 SW3       29.98F THUNDER
WISE*          CLOUDY    72  63  73 CALM      30.00F
ABINGDON*      MOSUNNY   78  67  67 NW7       29.97F
$$

MDZ021>025-VAZ099-100-272300-
SOUTHERN MARYLAND AND THE DELMARVA PENINSULA

CITY           SKY/WX    TMP DP  RH WIND       PRES   REMARKS
PATUXENT RIVER CLOUDY    71  64  78 E9        29.86S
BAY BRIDGE APT CLOUDY    68  61  77 NE3       29.89F
LEONARDTOWN    CLOUDY    70  61  73 NE3       29.88S
DOVER          LGT RAIN  64  64 100 CALM      29.90R
GEORGETOWN     CLOUDY    72  59  63 E9        29.89F
EASTON         PTSUNNY   72  61  68 NE7       29.92F
CAMBRIDGE      CLOUDY    72  64  78 CALM      29.87F
SALISBURY      CLOUDY    73  59  61 SE7       29.88S
OCEAN CITY     CLOUDY    67  57  70 SE6       29.91R
WALLOPS ISLAND PTSUNNY   70  58  65 E7        29.89S
ACCOMACK*      PTSUNNY   70  17  13 E6        29.87S
$$

NCZ012>017-030>032-272300-
NORTH CENTRAL AND EASTERN NORTH CAROLINA

CITY           SKY/WX    TMP DP  RH WIND       PRES   REMARKS
ROANOKE RAPIDS FAIR      81  68  65 S5        29.83F
RALEIGH        PTSUNNY   83  65  54 SW10      29.86F
ELIZABETH CITY SUNNY     86  66  51 SW9       29.85S
AHOSKIE*       NOT AVBL
EDENTON*       MOSUNNY   87  67  50 CALM      29.86S
CURRITUCK*     MOSUNNY   86  63  44 SW6       29.85S
KILL DEVIL HLS SUNNY     83  65  55 CALM      29.85F
MANTEO         MOSUNNY   80  68  65 S14       29.86F
CAPE HATTERAS  MOSUNNY   79  70  74 SW10      29.90S
TARBORO*       NOT AVBL
GOLDSBORO      MOSUNNY   89  62  40 W8        29.84F
WASHINGTON     CLOUDY    87  64  46 SW8       29.86F
GREENVILLE     PTSUNNY   88  63  42 SW7       29.88F
NEW BERN       MOSUNNY   85  70  60 S12       29.88S
WILMINGTON     SUNNY     85  68  56 S14       29.88F
$$

VAZ048-272300-
ELSEWHERE

CITY           SKY/WX    TMP DP  RH WIND       PRES   REMARKS
HARRISBURG PA  PTSUNNY   70  59  68 SW5       29.88S
BALTIMORE      CLOUDY    68  60  75 E7        29.88F
ANNAPOLIS      CLOUDY    69  62  78 NE8       29.89S
ANDREWS AFB    CLOUDY    67  60  78 E5        29.87F
PHILADELPHIA   PTSUNNY   71  55  56 SW10      29.90S
HENDERSON NC   MOSUNNY   80  63  55 SW8       29.85F
GREENSBORO     PTSUNNY   85  65  51 W13       29.88S
ROCKY MOUNT    SUNNY     86  66  51 S9        29.84F
$$

VAZ100-272300-
MARINE

STATION/POSITION TIME  TEMP    WIND        PRES    WAVE   SWELL
                       AIR SEA DIR/SP/G            HT/PER HT/PER
                 (UTC) (F)     (DEG/KT/KT) (MB)    (FT/S) (FT/S)
CAPE MAY NJ      2148   64 64  110/  3/  4 1012.6S
LEWES DE         2148          150/  6/  8 1012.3F
15NM E FENWICK I 2150   63 62   90/  4/  4 1013.5R   2/ 7   2/ 7
WACHAPREAGUE VA  2148   68 76   70/  8/  9 1011.4R
THOMAS POINT MD  2200   66 64   20/  8/  8   N/A
GOOSES REEF MD   2200   69 65   30/  6/  8 1012.3
COVE POINT MD    2148   69      20/  6/  7 1011.9F
SOLOMONS ISLAND  2142   70 68   80/  8/  9   N/A
BISHOPS HEAD MD  2148   73 72   80/  5/  6 1011.6F
PINEY POINT MD   2142          130/ 10/ 11   N/A
POTOMAC MD       2200   71 68  140/  8/ 10 1009.7    1
CAMBRIDGE MD     2142   73 72                N/A
LEWISETTA VA     2148   71 71  120/ 10/ 11 1010.4F
RAPPAHANNOCK LGT 2148           90/ 10/ 11 1011.4F
STINGRAY PT      2150   71     150/  6/  6 1011.4F
YORK RVR RNG VA  2148   71     120/ 11/ 12 1009.8F
YORKTOWN VA      2148   72 71   70/ 10/ 10 1010.0F
JAMESTOWN VA     2200   80 72   50/  4/  6   N/A     0
DOMINION TERM VA 2148   82      CALM  /  2 1010.1F
KIPTOPEKE VA     2148      70  140/  8/ 11   N/A
CHES BAY BRIDGE  2148   71 69  110/ 10/ 13 1010.1F
CAPE HENRY VA    2148   71     110/  8/ 11   N/A
WILLOUBY STN VA  2148   74     100/ 11/ 11 1010.0F
S CRANEY ISL VA  2148   86     220/  6/ 10 1009.8F
CAPE HENRY BUOY  2142      67                N/A     2/ 8
1ST LANDING BUOY 2200   70 68              1010.5    1/ 3
CAPE CHARLES BUO 2151      67                N/A     2/ 7
64NM E OF VA BCH 2150   69 67  170/  4/  4 1012.1F   3/ 7   3/ 7
DUCK PIER NC     2148   80 64  120/  9/ 10 1010.4F
44100 DUCK FRF   2135      69                N/A     2/ 7
44056 DUCK FRF   2100      67                N/A     1/ 8
OREGON INLET NC  2148          190/ 18/ 20 1011.3F
HATTERAS NC      2148   77 74  210/ 12/ 16 1012.2F
DIAMOND SHLS NC  2150   78 77  220/ 17/ 21 1012.3F   3/ 6   2/ 8
CAPE LOOKOUT NC  2200   77     210/ 13/ 17 1012.2S
$$




USA.gov is the U.S. government's official web portal to all federal, state and local government web resources and services.